Location: Tyler Bend Campground
(35.9875°N, 92.7606°W)
Time: 22:30:39
(UTC-06:00)

CZ-2C R/B - Visible Passes

Search period start: 21 February 2017 00:00
Search period end: 03 March 2017 00:00
Orbit: 668 x 786 km, 98.1° (Epoch: 21 February)

Date Brightness Start Highest point End Pass type
(mag) Time Alt. Az. Time Alt. Az. Time Alt. Az.
21 Feb 3.7 05:53:25 10° NNE 05:58:06 46° E 06:02:55 10° S visible
21 Feb 5.5 18:40:03 10° SW 18:43:04 17° W 18:46:06 10° NW visible
22 Feb 5.6 05:07:12 10° ENE 05:09:57 15° E 05:12:41 10° SE visible
23 Feb 3.5 05:55:45 10° NNE 06:00:30 49° E 06:05:23 10° S visible
23 Feb 5.6 18:42:37 10° SW 18:45:28 16° W 18:48:19 10° NW visible
24 Feb 5.6 05:09:21 10° NE 05:12:21 16° E 05:15:22 10° SE visible
25 Feb 3.4 05:58:04 10° NNE 06:02:54 53° E 06:07:51 10° S visible
25 Feb 5.7 18:45:12 10° SW 18:47:50 15° W 18:50:30 10° WNW visible
26 Feb 5.5 05:11:32 10° NE 05:14:46 17° E 05:18:01 10° SE visible
27 Feb 3.3 06:00:24 10° NNE 06:05:18 56° E 06:10:18 10° S visible
27 Feb 5.7 18:47:48 10° SW 18:50:14 14° W 18:52:40 10° WNW visible
28 Feb 5.4 05:13:44 10° NE 05:17:11 18° E 05:20:39 10° SE visible
01 Mar 3.2 06:02:45 10° NNE 06:07:42 60° E 06:12:45 10° S visible
01 Mar 5.8 18:50:25 10° WSW 18:52:37 13° W 18:54:49 10° WNW visible
02 Mar 5.3 05:15:57 10° NE 05:19:36 20° E 05:23:15 10° SE visible
